QPF
0.00 0.00 0.00 0.00 0.00 0.00 0.00 0.00 0.00 0.00 0.00 0.00 0.00 0.00 0.00 0.00 0.00 0.00 0.00 0.00 0.00 0.00 0.00 0.00 0.00 0.01 0.01 0.01 0.01 0.01 0.00 0.00 0.00 0.00 0.00 0.00 0.00 0.00 0.00 0.00 0.00 0.00 0.00
0.00 0.00 0.00 0.00 0.00 0.00 0.00 0.00 0.00 0.00 0.00 0.00 0.00 0.00 0.00 0.00 0.00 0.00 0.00 0.00 0.00 0.00 0.00 0.00 0.01 0.01 0.00 0.00 0.00 0.00 0.00 0.00 0.00 0.00 0.00 0.00 0.00 0.00 0.00 0.00 0.00 0.00 0.00
0.00 0.00 0.00 0.00 0.00 0.00 0.00 0.00 0.00 0.00 0.00 0.00 0.00 0.00 0.00 0.00 0.00 0.00 0.00 0.00 0.00 0.00 0.00 0.00 0.00 0.00 0.00 0.00 0.00 0.00 0.00 0.00 0.00 0.00 0.00 0.00 0.00 0.00 0.00 0.00 0.00 0.00 0.00
0.00 0.00 0.00 0.00 0.00 0.00 0.00 0.00 0.00 0.00 0.00 0.00 0.00 0.00 0.00 0.00 0.00 0.00 0.00 0.00 0.00 0.00 0.00 0.00 0.00 0.00 0.00 0.00 0.00 0.00 0.00 0.00 0.00 0.00 0.00 0.00 0.00 0.00 0.00 0.00 0.00 0.00 0.00
0.00 0.00 0.00 0.00 0.00 0.00 0.00 0.00 0.00 0.00 0.00 0.00 0.00 0.00 0.00 0.00 0.00 0.00 0.00 0.00 0.00 0.00 0.00 0.00 0.00 0.00 0.00 0.00 0.00 0.00 0.00 0.00 0.00 0.00 0.00 0.00 0.00 0.00 0.00 0.00 0.00 0.00 0.00
0.00 0.00 0.00 0.00 0.00 0.00 0.00 0.00 0.00 0.00 0.00 0.00 0.00 0.00 0.00 0.00 0.00 0.00 0.00 0.00 0.00 0.00 0.00 0.00 0.00 0.00 0.00 0.00 0.00 0.00 0.00 0.00 0.00 0.00 0.00 0.00 0.00 0.00 0.00 0.00 0.00 0.00 0.00
0.00 0.00 0.01 0.01 0.00 0.01 0.00 0.00 0.00 0.00 0.00 0.00 0.00 0.00 0.00 0.00 0.00 0.00 0.00 0.00 0.00 0.00 0.00 0.00 0.00 0.00 0.00 0.00 0.00 0.00 0.00 0.00 0.00 0.00 0.00 0.00 0.00 0.00 0.00 0.00 0.00 0.00 0.00
0.00 0.00 0.01 0.05 0.00 0.01 0.00 0.00 0.00 0.00 0.00 0.00 0.00 0.00 0.00 0.00 0.00 0.00 0.00 0.00 0.00 0.00 0.00 0.00 0.00 0.00 0.00 0.00 0.00 0.00 0.00 0.00 0.00 0.00 0.00 0.00 0.00 0.00 0.00 0.00 0.00 0.00 0.00
0.01 0.01 0.00 0.02 0.00 0.00 0.00 0.00 0.00 0.00 0.00 0.00 0.00 0.00 0.00 0.00 0.00 0.00 0.00 0.00 0.00 0.00 0.00 0.00 0.00 0.00 0.00 0.00 0.00 0.00 0.00 0.00 0.00 0.00 0.00 0.00 0.00 0.00 0.00 0.00 0.00 0.00 0.00
0.01 0.00 0.00 0.01 0.01 0.01 0.00 0.00 0.00 0.00 0.00 0.00 0.00 0.00 0.00 0.00 0.00 0.00 0.00 0.00 0.00 0.00 0.00 0.00 0.00 0.00 0.00 0.00 0.00 0.00 0.00 0.00 0.00 0.00 0.00 0.00 0.00 0.00 0.00 0.00 0.00 0.00 0.00
0.15 0.03 0.00 0.02 0.07 0.03 0.01 0.00 0.00 0.00 0.00 0.00 0.00 0.00 0.00 0.00 0.00 0.00 0.00 0.00 0.00 0.00 0.00 0.00 0.00 0.00 0.00 0.00 0.00 0.00 0.00 0.00 0.00 0.00 0.00 0.00 0.00 0.00 0.00 0.00 0.00 0.00 0.00
0.31 0.27 0.13 0.05 0.13 0.02 0.01 0.00 0.00 0.00 0.00 0.00 0.00 0.00 0.00 0.00 0.00 0.00 0.00 0.00 0.00 0.00 0.00 0.00 0.00 0.00 0.00 0.00 0.00 0.00 0.00 0.00 0.00 0.00 0.00 0.00 0.00 0.00 0.00 0.00 0.00 0.00 0.00
0.34 0.28 0.18 0.12 0.10 0.06 0.02 0.00 0.01 0.00 0.01 0.01 0.00 0.00 0.00 0.00 0.00 0.00 0.00 0.00 0.00 0.00 0.00 0.00 0.00 0.00 0.00 0.00 0.00 0.00 0.00 0.00 0.00 0.00 0.00 0.00 0.00 0.00 0.00 0.00 0.00 0.00 0.00
0.12 0.24 0.25 0.17 0.08 0.08 0.05 0.01 0.01 0.02 0.01 0.01 0.01 0.00 0.00 0.00 0.00 0.00 0.00 0.00 0.00 0.00 0.00 0.00 0.00 0.00 0.00 0.00 0.00 0.00 0.00 0.00 0.00 0.00 0.00 0.00 0.00 0.00 0.00 0.00 0.00 0.00 0.00
0.12 0.13 0.14 0.17 0.09 0.02 0.03 0.03 0.03 0.01 0.02 0.01 0.00 0.00 0.00 0.00 0.00 0.00 0.00 0.00 0.00 0.00 0.00 0.00 0.00 0.00 0.00 0.00 0.00 0.00 0.00 0.00 0.00 0.00 0.00 0.00 0.00 0.00 0.00 0.00 0.00 0.00 0.00
0.29 0.25 0.30 0.21 0.14 0.05 0.06 0.13 0.09 0.06 0.02 0.01 0.00 0.00 0.00 0.00 0.00 0.00 0.00 0.00 0.00 0.00 0.00 0.00 0.00 0.00 0.00 0.00 0.00 0.00 0.00 0.00 0.00 0.00 0.00 0.00 0.00 0.00 0.00 0.00 0.00 0.00 0.00
0.08 0.10 0.18 0.33 0.31 0.18 0.09 0.17 0.10 0.05 0.02 0.03 0.02 0.00 0.00 0.00 0.00 0.00 0.00 0.00 0.00 0.00 0.00 0.00 0.00 0.00 0.00 0.00 0.00 0.00 0.00 0.00 0.00 0.00 0.00 0.00 0.00 0.00 0.00 0.00 0.00 0.00 0.00
0.04 0.03 0.06 0.08 0.20 0.19 0.12 0.07 0.06 0.02 0.01 0.01 0.01 0.00 0.00 0.00 0.00 0.00 0.00 0.00 0.00 0.00 0.00 0.00 0.00 0.00 0.00 0.00 0.00 0.00 0.00 0.00 0.00 0.00 0.00 0.00 0.00 0.00 0.00 0.00 0.00 0.00 0.00
0.02 0.01 0.02 0.04 0.05 0.09 0.13 0.12 0.07 0.03 0.01 0.01 0.01 0.01 0.00 0.01 0.00 0.00 0.00 0.00 0.00 0.00 0.00 0.00 0.00 0.00 0.00 0.00 0.00 0.00 0.00 0.00 0.00 0.00 0.00 0.00 0.00 0.00 0.00 0.00 0.00 0.00 0.00
0.00 0.00 0.01 0.01 0.02 0.03 0.04 0.05 0.08 0.07 0.03 0.01 0.00 0.00 0.00 0.00 0.00 0.00 0.00 0.00 0.00 0.00 0.00 0.00 0.00 0.00 0.00 0.00 0.00 0.00 0.00 0.00 0.00 0.00 0.00 0.00 0.00 0.00 0.00 0.00 0.00 0.00 0.00
0.00 0.00 0.00 0.00 0.01 0.01 0.01 0.02 0.05 0.06 0.06 0.03 0.01 0.00 0.00 0.00 0.00 0.01 0.00 0.01 0.00 0.00 0.00 0.00 0.00 0.00 0.00 0.00 0.00 0.00 0.00 0.00 0.00 0.01 0.00 0.00 0.00 0.00 0.00 0.00 0.00 0.00 0.00
0.00 0.00 0.00 0.00 0.00 0.00 0.00 0.00 0.01 0.03 0.05 0.03 0.02 0.01 0.01 0.00 0.01 0.02 0.02 0.02 0.01 0.00 0.00 0.00 0.00 0.00 0.00 0.00 0.00 0.00 0.00 0.00 0.00 0.00 0.02 0.01 0.00 0.00 0.00 0.00 0.00 0.00 0.00
0.00 0.00 0.00 0.00 0.00 0.00 0.00 0.00 0.00 0.01 0.01 0.01 0.04 0.05 0.03 0.02 0.02 0.02 0.02 0.01 0.01 0.01 0.01 0.01 0.00 0.00 0.00 0.00 0.01 0.02 0.02 0.01 0.00 0.01 0.01 0.01 0.00 0.00 0.00 0.00 0.01 0.01 0.00
0.00 0.00 0.00 0.00 0.00 0.00 0.00 0.00 0.00 0.00 0.00 0.00 0.02 0.03 0.03 0.04 0.03 0.02 0.02 0.03 0.03 0.01 0.01 0.01 0.00 0.00 0.00 0.01 0.02 0.02 0.02 0.01 0.01 0.01 0.01 0.01 0.00 0.00 0.00 0.00 0.00 0.00 0.00
0.00 0.00 0.00 0.00 0.00 0.00 0.00 0.00 0.00 0.00 0.00 0.00 0.00 0.00 0.01 0.01 0.00 0.00 0.01 0.02 0.02 0.02 0.01 0.00 0.00 0.00 0.00 0.00 0.00 0.01 0.00 0.00 0.00 0.00 0.00 0.00 0.00 0.00 0.00 0.00 0.00 0.00 0.00
0.00 0.00 0.00 0.00 0.00 0.00 0.00 0.00 0.00 0.00 0.00 0.00 0.00 0.00 0.00 0.00 0.00 0.00 0.00 0.00 0.00 0.00 0.00 0.00 0.00 0.00 0.00 0.00 0.00 0.00 0.00 0.00 0.00 0.00 0.00 0.00 0.00 0.00 0.00 0.00 0.00 0.00 0.00
MSLP
1013.42 1014.30 1015.03 1015.68 1016.42 1017.18 1017.55 1017.85 1018.20 1018.65 1019.09 1019.15 1019.28 1019.51 1019.81 1020.80 1021.13 1021.64 1021.95 1022.12 1022.50 1022.77 1022.97 1023.37 1023.79 1024.27 1024.73 1025.07 1025.40 1025.72 1026.13 1026.37 1026.62 1026.82 1027.02 1027.26 1027.54 1027.80 1028.02 1028.27 1028.45 1028.73 1028.95
1012.45 1013.39 1014.33 1014.94 1015.79 1016.47 1017.21 1017.44 1017.63 1018.24 1018.84 1019.09 1019.18 1019.41 1019.82 1020.62 1021.12 1021.62 1021.91 1022.22 1022.53 1022.84 1022.97 1023.37 1023.81 1024.28 1024.68 1025.05 1025.42 1025.79 1026.20 1026.45 1026.66 1026.93 1027.17 1027.44 1027.69 1028.07 1028.36 1028.61 1028.70 1028.91 1029.16
1011.40 1012.38 1013.52 1014.38 1014.91 1015.71 1016.66 1017.26 1017.52 1017.94 1018.58 1018.92 1019.19 1019.30 1019.77 1020.32 1021.09 1021.54 1021.86 1022.20 1022.53 1022.86 1023.06 1023.52 1023.85 1024.25 1024.71 1025.09 1025.44 1025.82 1026.23 1026.62 1026.86 1027.05 1027.32 1027.65 1027.98 1028.31 1028.54 1028.76 1029.00 1029.21 1029.33
1010.48 1011.43 1012.58 1013.43 1014.08 1014.93 1015.84 1016.60 1017.02 1017.60 1018.19 1018.72 1019.01 1019.16 1019.53 1020.33 1020.90 1021.30 1021.73 1022.14 1022.47 1022.79 1023.17 1023.51 1023.93 1024.29 1024.64 1025.01 1025.35 1025.75 1026.20 1026.61 1026.78 1027.16 1027.45 1027.79 1028.14 1028.43 1028.59 1028.82 1029.06 1029.26 1029.35
1009.47 1010.18 1011.21 1012.35 1013.29 1014.16 1015.13 1015.92 1016.35 1016.80 1017.52 1018.23 1018.76 1019.02 1019.50 1020.17 1020.51 1021.02 1021.56 1022.00 1022.36 1022.72 1023.16 1023.50 1023.73 1024.07 1024.57 1024.96 1025.27 1025.68 1026.10 1026.48 1026.78 1027.13 1027.52 1027.90 1028.12 1028.40 1028.64 1028.86 1029.09 1029.35 1029.52
1008.57 1009.27 1010.37 1011.37 1012.35 1013.55 1014.36 1015.30 1015.79 1016.32 1016.77 1017.59 1018.42 1018.94 1019.41 1019.80 1020.23 1020.81 1021.17 1021.65 1022.08 1022.54 1022.98 1023.37 1023.69 1023.91 1024.33 1024.72 1025.13 1025.48 1025.84 1026.23 1026.61 1026.96 1027.43 1027.88 1028.09 1028.31 1028.57 1028.80 1029.07 1029.31 1029.54
1007.79 1008.37 1009.20 1010.28 1011.40 1012.52 1013.27 1014.09 1014.94 1015.58 1016.49 1017.11 1018.38 1019.49 1019.75 1019.78 1020.12 1020.56 1020.78 1021.31 1021.85 1022.24 1022.65 1023.08 1023.54 1023.91 1024.21 1024.61 1024.98 1025.25 1025.48 1025.78 1026.20 1026.61 1027.12 1027.66 1027.91 1028.14 1028.39 1028.66 1028.99 1029.28 1029.53
1007.13 1007.93 1008.44 1009.15 1010.25 1011.51 1012.62 1013.17 1014.03 1014.85 1015.71 1016.36 1017.14 1018.92 1019.76 1020.49 1020.29 1020.22 1020.55 1020.96 1021.28 1021.69 1022.24 1022.64 1023.08 1023.56 1023.97 1024.29 1024.62 1024.97 1025.20 1025.35 1025.68 1026.25 1026.71 1027.21 1027.62 1027.90 1028.12 1028.35 1028.67 1028.97 1029.28
1006.16 1006.88 1007.54 1008.29 1009.14 1010.07 1011.15 1011.74 1012.85 1013.46 1014.08 1015.39 1015.98 1016.79 1018.75 1019.47 1020.12 1020.28 1020.27 1020.46 1020.81 1021.07 1021.45 1021.91 1022.45 1022.93 1023.45 1023.85 1024.30 1024.60 1024.88 1025.15 1025.38 1025.80 1026.28 1026.81 1027.24 1027.53 1027.79 1028.11 1028.50 1028.88 1029.18
1004.76 1005.79 1006.43 1007.33 1008.33 1008.69 1009.65 1010.44 1011.75 1012.18 1012.92 1014.19 1015.44 1015.77 1016.39 1016.81 1018.49 1020.01 1020.02 1020.02 1020.20 1020.53 1020.82 1021.14 1021.71 1022.26 1022.76 1023.26 1023.66 1023.96 1024.32 1024.75 1025.14 1025.39 1025.82 1026.33 1026.80 1027.12 1027.46 1027.86 1028.26 1028.64 1029.01
1003.26 1004.33 1005.14 1006.26 1007.81 1008.53 1008.91 1009.49 1010.62 1011.32 1011.84 1012.73 1013.73 1014.69 1015.85 1016.17 1016.83 1018.04 1018.98 1019.65 1020.06 1019.91 1020.08 1020.24 1020.66 1021.26 1021.73 1022.29 1022.85 1023.29 1023.69 1024.12 1024.59 1024.87 1025.26 1025.68 1026.14 1026.60 1027.01 1027.45 1027.85 1028.21 1028.58
1000.94 1002.77 1003.86 1004.95 1006.63 1007.33 1008.14 1008.85 1009.60 1010.14 1010.79 1011.49 1012.48 1013.47 1014.40 1015.08 1015.60 1016.45 1017.39 1018.07 1018.41 1018.70 1018.98 1019.32 1019.75 1020.05 1020.47 1021.09 1021.67 1022.26 1022.87 1023.37 1023.85 1024.24 1024.62 1025.02 1025.46 1025.93 1026.40 1026.85 1027.30 1027.68 1028.07
997.95 1002.04 1002.53 1003.82 1005.40 1006.04 1006.94 1007.75 1008.91 1009.54 1010.09 1010.82 1011.31 1012.17 1012.98 1013.74 1014.28 1015.06 1015.88 1017.02 1017.51 1018.18 1018.54 1018.37 1018.60 1018.89 1019.36 1019.93 1020.45 1021.07 1021.78 1022.42 1023.11 1023.57 1023.98 1024.40 1024.81 1025.33 1025.84 1026.26 1026.65 1027.09 1027.54
1001.73 1001.42 1002.30 1003.21 1004.43 1005.41 1006.04 1006.86 1008.06 1008.89 1009.31 1010.23 1010.64 1011.35 1012.18 1012.67 1013.13 1013.51 1014.26 1015.47 1016.98 1017.50 1017.45 1016.88 1017.30 1017.90 1018.31 1018.56 1018.95 1019.92 1020.68 1021.44 1022.21 1022.74 1023.27 1023.66 1024.16 1024.64 1025.08 1025.56 1026.05 1026.49 1026.92
1000.22 1000.53 1002.37 1002.87 1003.53 1003.99 1004.92 1006.01 1007.01 1008.21 1008.94 1009.52 1009.90 1010.44 1011.11 1011.64 1012.30 1012.75 1013.20 1013.89 1014.75 1016.16 1016.54 1016.32 1016.72 1016.59 1017.14 1017.82 1018.09 1018.90 1019.58 1020.33 1021.06 1021.66 1022.30 1022.96 1023.57 1024.04 1024.50 1024.91 1025.37 1025.81 1026.16
1001.17 1001.03 1000.99 1001.43 1001.68 1003.84 1004.65 1005.48 1006.51 1007.37 1008.01 1008.72 1009.10 1009.82 1010.53 1011.05 1011.62 1012.24 1012.68 1012.95 1013.50 1014.38 1015.24 1015.26 1015.45 1015.60 1015.99 1016.52 1017.18 1017.70 1018.05 1018.79 1019.77 1020.55 1021.31 1022.01 1022.60 1023.09 1023.62 1024.21 1024.64 1025.11 1025.51
1003.22 1002.64 1001.44 1001.15 1002.30 1003.69 1003.69 1004.60 1005.06 1006.04 1007.04 1007.85 1008.53 1009.22 1009.73 1010.35 1011.05 1011.60 1012.14 1012.61 1013.22 1013.71 1014.25 1014.53 1014.37 1014.97 1015.47 1015.64 1016.15 1016.74 1017.03 1017.84 1018.64 1019.37 1020.16 1020.96 1021.59 1022.10 1022.70 1023.26 1023.86 1024.35 1024.72
1005.06 1003.47 1001.46 1001.26 1002.53 1003.30 1002.43 1003.08 1004.54 1004.88 1005.60 1006.81 1007.78 1008.63 1009.15 1009.88 1010.56 1010.99 1011.49 1012.01 1012.47 1012.78 1013.51 1014.24 1014.22 1014.71 1014.74 1014.81 1015.29 1015.98 1016.30 1016.77 1017.46 1018.37 1019.15 1019.95 1020.54 1021.12 1021.62 1022.24 1022.87 1023.41 1023.85
1006.84 1005.73 1004.43 1005.24 1004.75 1005.34 1004.79 1002.76 1003.92 1004.64 1004.97 1005.95 1006.77 1007.59 1007.92 1009.17 1009.76 1010.11 1010.52 1011.03 1011.46 1011.80 1012.56 1013.42 1013.90 1014.26 1014.28 1014.60 1015.26 1015.58 1015.85 1016.17 1016.58 1017.06 1018.08 1018.67 1019.23 1019.96 1020.69 1021.35 1021.82 1022.22 1022.64
1009.08 1007.98 1007.71 1007.69 1007.80 1007.95 1007.50 1006.30 1006.11 1004.49 1004.48 1004.91 1006.04 1006.66 1006.99 1007.56 1008.52 1009.27 1009.62 1009.85 1010.38 1011.14 1011.63 1012.41 1013.19 1013.73 1014.00 1014.17 1014.53 1015.20 1015.76 1015.75 1016.23 1016.67 1017.26 1017.67 1018.40 1019.14 1019.73 1020.11 1020.46 1020.85 1021.43
1010.94 1010.48 1010.03 1009.81 1009.44 1008.43 1008.57 1006.07 1004.52 1005.79 1004.16 1004.19 1005.07 1005.30 1005.54 1006.09 1006.59 1007.53 1008.64 1009.23 1009.65 1010.18 1010.78 1011.30 1012.19 1012.78 1013.14 1013.66 1014.06 1014.36 1014.93 1015.32 1015.64 1015.99 1016.85 1017.53 1018.19 1018.72 1018.93 1019.48 1019.68 1020.02 1020.29
1011.32 1011.26 1010.08 1009.75 1009.22 1009.66 1010.07 1009.29 1008.33 1006.35 1005.47 1006.06 1004.94 1004.49 1004.82 1005.29 1005.86 1006.34 1007.09 1007.79 1008.80 1009.29 1009.70 1010.18 1010.68 1011.35 1011.84 1012.05 1012.82 1013.46 1014.02 1014.96 1015.84 1015.28 1015.91 1016.62 1016.97 1017.65 1017.75 1018.06 1018.17 1018.54 1019.14
1011.85 1011.03 1010.64 1010.88 1010.51 1010.28 1009.72 1008.68 1007.74 1006.71 1007.46 1006.16 1004.24 1005.87 1004.06 1004.89 1005.10 1005.67 1006.23 1006.66 1007.24 1007.84 1008.11 1008.71 1009.35 1009.86 1010.40 1010.94 1011.85 1012.61 1012.85 1013.13 1013.48 1013.94 1014.59 1015.69 1016.27 1016.46 1016.59 1016.91 1017.17 1017.41 1018.00
1012.41 1012.98 1012.50 1011.52 1010.85 1010.83 1010.69 1009.40 1008.28 1008.30 1008.32 1007.82 1005.93 1006.90 1006.76 1005.68 1005.66 1004.23 1004.84 1006.11 1006.59 1007.27 1007.86 1008.08 1008.04 1008.54 1009.07 1009.57 1010.15 1010.80 1011.44 1012.12 1013.40 1013.68 1013.81 1015.12 1015.49 1015.73 1015.36 1015.88 1016.37 1016.52 1016.98
1013.06 1012.83 1012.68 1012.61 1011.97 1011.29 1010.83 1010.32 1009.55 1009.52 1009.44 1008.61 1008.23 1008.35 1008.62 1008.29 1006.44 1005.21 1004.09 1004.98 1006.10 1006.33 1007.15 1007.58 1008.08 1008.24 1008.63 1009.03 1009.59 1010.55 1011.44 1012.40 1013.09 1012.99 1013.62 1013.82 1015.09 1015.56 1015.54 1015.50 1015.41 1015.55 1015.62
1014.23 1013.72 1013.06 1012.41 1011.74 1011.38 1011.17 1010.50 1010.24 1010.12 1010.11 1008.95 1008.76 1008.49 1008.28 1007.98 1008.42 1006.97 1005.97 1004.97 1005.67 1006.42 1006.51 1007.12 1007.69 1007.95 1008.21 1008.74 1008.96 1009.55 1010.09 1010.92 1011.90 1012.82 1012.64 1013.51 1014.42 1015.21 1015.93 1015.29 1015.36 1015.22 1015.23
Thickness
5716 5711 5706 5705 5704 5700 5700 5701 5699 5696 5693 5694 5695 5695 5695 5688 5689 5687 5687 5687 5685 5685 5685 5684 5683 5682 5680 5679 5678 5677 5674 5673 5672 5671 5670 5669 5669 5668 5666 5664 5662 5661 5659
5716 5714 5706 5704 5703 5701 5697 5698 5700 5696 5692 5692 5693 5693 5693 5687 5686 5686 5686 5685 5684 5684 5685 5683 5682 5680 5679 5678 5677 5676 5673 5672 5671 5670 5669 5667 5667 5665 5663 5662 5661 5659 5657
5718 5714 5707 5703 5703 5701 5695 5692 5695 5694 5691 5690 5690 5691 5691 5688 5684 5684 5684 5684 5683 5682 5682 5680 5679 5679 5677 5676 5675 5673 5671 5670 5669 5668 5667 5665 5664 5663 5662 5660 5658 5657 5655
5717 5713 5707 5703 5702 5699 5695 5693 5694 5694 5692 5688 5688 5690 5689 5686 5683 5682 5682 5682 5682 5681 5679 5678 5676 5676 5674 5674 5673 5672 5670 5668 5668 5666 5665 5664 5662 5660 5660 5658 5656 5654 5654
5715 5716 5711 5704 5700 5697 5694 5692 5693 5695 5692 5688 5686 5686 5686 5685 5682 5681 5680 5680 5680 5679 5677 5677 5676 5674 5672 5671 5671 5669 5668 5667 5666 5664 5663 5661 5660 5658 5657 5656 5654 5652 5652
5712 5713 5709 5704 5699 5693 5692 5689 5689 5691 5693 5688 5683 5683 5681 5683 5682 5678 5679 5678 5678 5677 5675 5674 5674 5673 5671 5669 5668 5668 5667 5666 5664 5663 5661 5659 5658 5657 5655 5654 5652 5650 5649
5707 5710 5709 5703 5698 5692 5693 5693 5689 5689 5686 5687 5676 5669 5673 5677 5679 5679 5678 5677 5676 5675 5674 5673 5672 5671 5669 5667 5666 5666 5666 5665 5664 5662 5659 5657 5656 5655 5654 5653 5650 5648 5646
5703 5702 5704 5702 5698 5692 5688 5688 5688 5686 5684 5685 5682 5668 5659 5664 5672 5678 5678 5677 5676 5674 5673 5672 5670 5669 5668 5667 5666 5664 5664 5664 5663 5660 5658 5656 5654 5653 5653 5652 5650 5648 5646
5699 5698 5701 5700 5699 5695 5690 5692 5690 5691 5690 5686 5687 5681 5659 5663 5665 5670 5674 5677 5676 5676 5674 5672 5670 5668 5667 5665 5664 5663 5662 5662 5661 5659 5657 5655 5654 5652 5651 5649 5647 5644 5642
5698 5694 5698 5696 5695 5698 5694 5694 5691 5695 5691 5683 5682 5685 5685 5684 5671 5661 5669 5674 5675 5676 5676 5674 5671 5669 5666 5665 5664 5663 5662 5661 5659 5658 5656 5654 5652 5650 5648 5646 5643 5641 5638
5694 5691 5695 5695 5687 5688 5690 5693 5690 5691 5692 5688 5687 5685 5679 5682 5681 5672 5670 5668 5668 5674 5676 5676 5674 5671 5668 5665 5665 5663 5662 5661 5659 5658 5656 5654 5651 5648 5646 5644 5641 5639 5636
5681 5684 5691 5694 5685 5688 5686 5686 5689 5692 5693 5693 5690 5687 5681 5681 5685 5680 5675 5675 5677 5676 5678 5676 5676 5675 5674 5670 5667 5666 5664 5661 5660 5658 5657 5654 5652 5649 5646 5644 5641 5638 5635
5665 5671 5685 5688 5684 5686 5686 5686 5681 5685 5689 5689 5690 5688 5687 5686 5690 5684 5678 5673 5673 5672 5672 5679 5678 5679 5678 5678 5673 5669 5666 5664 5661 5659 5657 5655 5652 5649 5646 5644 5641 5638 5635
5652 5672 5676 5682 5678 5680 5683 5683 5678 5677 5685 5683 5685 5684 5682 5685 5687 5689 5685 5678 5664 5665 5670 5683 5683 5680 5679 5680 5680 5673 5667 5664 5662 5660 5657 5656 5652 5650 5648 5645 5641 5638 5635
5660 5655 5666 5675 5675 5684 5682 5679 5676 5670 5674 5678 5681 5682 5680 5682 5681 5684 5685 5684 5679 5662 5666 5675 5675 5685 5680 5677 5679 5676 5671 5667 5663 5662 5659 5655 5652 5649 5647 5644 5641 5638 5635
5646 5653 5671 5667 5659 5674 5672 5669 5667 5666 5668 5671 5676 5675 5674 5676 5677 5676 5677 5680 5678 5671 5663 5675 5677 5682 5680 5677 5677 5676 5675 5673 5668 5664 5661 5658 5654 5650 5647 5643 5640 5637 5634
5623 5641 5653 5669 5667 5661 5668 5664 5666 5665 5664 5666 5667 5667 5671 5672 5670 5671 5671 5670 5666 5665 5662 5666 5675 5675 5672 5674 5676 5677 5676 5674 5671 5668 5663 5658 5655 5652 5648 5644 5640 5637 5634
5594 5614 5617 5625 5646 5622 5647 5667 5660 5662 5664 5661 5660 5660 5664 5664 5662 5664 5664 5663 5663 5664 5659 5656 5661 5662 5667 5673 5674 5670 5672 5672 5670 5666 5662 5657 5654 5652 5649 5645 5640 5636 5633
5567 5585 5588 5589 5609 5609 5613 5632 5651 5652 5659 5656 5656 5657 5663 5657 5657 5660 5660 5660 5660 5661 5658 5655 5656 5657 5660 5663 5661 5663 5665 5666 5666 5665 5660 5656 5655 5651 5646 5642 5640 5637 5634
5538 5560 5564 5563 5573 5570 5576 5589 5612 5640 5648 5652 5648 5651 5657 5658 5657 5655 5656 5660 5659 5656 5654 5651 5649 5647 5650 5656 5656 5652 5654 5660 5660 5658 5655 5654 5649 5646 5643 5642 5640 5638 5633
5512 5519 5526 5537 5544 5559 5562 5593 5598 5614 5642 5647 5645 5652 5658 5660 5662 5659 5652 5653 5654 5652 5650 5649 5647 5644 5645 5647 5650 5654 5651 5653 5650 5652 5648 5645 5641 5637 5638 5636 5635 5634 5632
5497 5503 5519 5525 5536 5543 5543 5555 5567 5589 5612 5613 5635 5648 5653 5654 5656 5654 5651 5651 5647 5646 5648 5648 5649 5646 5646 5650 5650 5649 5647 5639 5636 5649 5645 5641 5638 5635 5636 5636 5635 5633 5629
5484 5498 5505 5510 5519 5528 5536 5551 5568 5582 5584 5597 5617 5619 5649 5644 5650 5649 5646 5647 5645 5643 5648 5651 5647 5647 5648 5648 5646 5639 5641 5645 5649 5650 5641 5637 5632 5635 5634 5631 5629 5627 5625
5469 5472 5482 5495 5507 5513 5518 5536 5550 5556 5563 5573 5596 5596 5601 5624 5629 5648 5648 5641 5642 5640 5639 5644 5650 5651 5650 5651 5648 5644 5641 5640 5627 5629 5636 5629 5626 5627 5631 5625 5622 5622 5619
5453 5459 5468 5475 5487 5496 5503 5517 5531 5535 5541 5555 5565 5569 5575 5587 5610 5626 5647 5635 5634 5636 5632 5635 5635 5639 5639 5640 5639 5631 5619 5616 5605 5617 5621 5621 5613 5613 5611 5614 5616 5617 5617
5437 5444 5452 5461 5472 5482 5490 5503 5512 5516 5524 5542 5551 5559 5565 5576 5575 5595 5605 5612 5623 5628 5624 5622 5625 5620 5624 5626 5625 5626 5622 5620 5604 5604 5616 5614 5603 5601 5595 5601 5607 5607 5608